Torna al catalogo

STARLINK-30615

AttivoComunicazioniVLEO
NORAD 58092·PAYLOAD·🇺🇸 United States

Lanciato Oct 18, 2023 da Cape Canaveral Space Force Station

Loading…

Prossimi Passaggi (prossime 24 ore)

TLE

AggiornatoSource: CelesTrak SupGP

Epoca: Sep 14, 2026, 22:24 UTC

1 58092C 23160T   26257.93381944  .00047469  00000+0  17195-2 0  2570
2 58092  43.0011  89.6366 0001621 267.1512  45.6542 15.27550793    18

Traccia STARLINK-30615 in tempo reale con AllMySat

Download on the App Store